Location: Casco Millpond
(44.5581°N, 87.6111°W)
Time: 22:11:16
(UTC+00:00)

Cosmos 1452 Rocket - Pass Details

Date: 16 January 2026
Orbit: 762 x 771 km, 74.1° (Epoch: 13 February)

Event Time Altitude Azimuth Distance (km) Brightness Sun altitude
Rises 23:21:12 0° 184° (S) 3,218 7.1 -7.8°
Reaches altitude 10° 23:23:37 10° 179° (S) 2,297 6.2 -8.2°
Maximum altitude 23:28:38 50° 105° (ESE) 971 3.7 -9.0°
Drops below altitude 10° 23:33:42 10° 31° (NNE) 2,319 5.5 -9.9°
Enters shadow 23:35:13 - 27° (NNE) 2,893 6.1 -10.1°
